Location: Cuirieux
(49.6812°N, 3.8157°E)
Time: 12:19:03
(UTC+00:00)

Daily predictions for brighter satellites

Satellite Brightness Start Highest point End
(mag) Time Altitude Azimuth Time Altitude Azimuth Time Altitude Azimuth
Cosmos 1400 Rocket 2.7 18:27:01 10° N 18:30:50 60° ENE 18:34:33 10° SSE
ACS3 Solar Sail 2.9 18:26:24 10° ESE 18:31:34 27° ENE 18:36:44 10° N
Cosmos 2322 3.8 18:26:38 10° S 18:32:09 59° ESE 18:37:43 10° NE
BlueWalker 3 2.6 18:29:39 10° WNW 18:33:17 49° SSW 18:36:55 10° SE
Cosmos 1066 Rocket 4.3 18:27:27 10° N 18:33:19 70° ENE 18:39:07 10° SSE
Cosmos 2233 Rocket 4.0 18:27:27 10° S 18:33:34 79° E 18:39:46 10° NNE
Cosmos 1726 1.2 18:33:24 10° S 18:36:09 69° E 18:38:56 10° NNE
Resurs 1-3 3.6 18:32:39 10° SSE 18:36:58 71° ENE 18:41:18 10° N
SAR-Lupe-2 3.6 18:41:20 10° SSE 18:44:55 87° WSW 18:48:32 10° NNW
Cosmos 1315 Rocket 4.3 18:43:27 10° NNE 18:46:27 20° ENE 18:49:14 11° ESE
Meteor PRIRODA 3.3 18:46:24 10° SSE 18:49:41 76° ENE 18:52:59 10° N
ATLAS 2AS CENTAUR R/B 4.3 18:43:41 10° W 18:50:09 34° NNW 18:56:26 10° NE
Cosmos 1125 Rocket 4.0 18:45:25 10° NNW 18:50:21 42° ENE 18:55:17 10° SE
Cosmos 1842 3.2 18:48:16 10° N 18:51:50 54° ENE 18:55:22 10° SSE
USA 59 Rocket 0.3 18:49:43 10° NW 18:53:29 69° SW 18:58:40 10° SSE
Cosmos 1536 3.5 18:51:04 10° SSE 18:54:24 29° E 18:57:45 10° NNE
Okean 3 Rocket 4.2 18:50:47 10° SSE 18:54:51 36° E 18:58:54 10° NNE
Cosmos 1707 2.7 18:52:11 10° N 18:55:39 48° ENE 18:59:05 10° SSE
Cosmos 2061 Rocket 4.4 18:49:15 10° SSW 18:55:41 72° WNW 19:02:08 10° N
Cosmos 1515 Rocket 4.0 18:51:44 10° N 18:55:51 41° ENE 18:59:59 10° SE
COSMOS 2428 2.7 18:50:16 10° SSW 18:55:56 73° ESE 19:01:41 10° NNE
Cosmos 1818 3.9 18:55:42 10° SW 19:01:09 70° NW 19:06:39 10° NE
Okean O Rocket 2.5 18:57:42 11° SE 19:01:22 32° ENE 19:05:18 10° N
Cosmos 2278 Rocket 2.2 19:00:43 10° NNW 19:06:25 84° ENE 19:12:06 10° SSE
USA 306 2.3 19:04:48 10° WSW 19:07:55 83° NNW 19:11:32 10° ENE
CZ-4B DEB 4.3 19:03:42 10° SSE 19:09:13 81° WSW 19:14:45 10° NNW
CZ-4 R/B 1.3 19:06:24 10° SSE 19:10:13 88° WSW 19:14:09 10° NNW
CZ-4B R/B 3.2 19:08:18 10° SSE 19:13:42 68° ENE 19:19:02 10° N
NOSS 2-1 (C) 4.5 19:10:09 10° NW 19:13:49 46° SW 19:18:46 10° SSE
Cosmos 1766 Rocket 3.6 19:10:06 10° SSW 19:14:27 82° WNW 19:18:53 10° N
Resurs 01 Rocket 1.6 19:11:22 10° SSE 19:15:46 73° ENE 19:20:11 10° N
Meteor 2-17 Rocket 4.4 19:09:42 10° N 19:15:47 83° E 19:21:52 10° S
Helios 1A 2.9 19:12:18 10° NNE 19:16:24 89° E 19:20:27 10° SSW
USA 290 2.8 19:13:35 10° NNW 19:16:50 59° WSW 19:20:05 10° S
Meteor 2-10 4.4 19:12:18 10° SSE 19:17:39 48° E 19:23:07 10° NNE
ADEOS 4.3 19:13:21 10° S 19:18:28 56° W 19:23:36 10° NNW
GEOS 3 Rocket 3.8 19:13:41 10° SE 19:18:53 71° SW 19:24:05 10° NW
USA 186 1.7 19:17:51 10° SSE 19:21:04 88° ENE 19:24:19 10° NNW
CZ-4B R/B 4.3 19:16:43 10° S 19:21:19 49° W 19:26:00 10° NNW
Cosmos 1814 Rocket 4.1 19:16:59 10° SSW 19:22:16 80° WNW 19:27:33 10° NNE
PAYLOAD B 4.4 19:16:44 10° SSE 19:22:20 82° WSW 19:28:00 10° NNW
KORONAS-FOTON 4.2 19:19:02 10° NNW 19:22:42 60° W 19:26:19 10° S
Cosmos 2360 Rocket 4.4 19:18:02 10° W 19:22:42 26° NW 19:27:24 10° NNE
MOS 1-B 4.4 19:17:52 10° SSE 19:23:36 66° ENE 19:29:20 10° N
SPOT 5 3.6 19:22:14 21° ESE 19:24:24 30° ENE 19:28:17 10° N
Okean-O 3.4 19:23:04 21° ESE 19:25:09 32° ENE 19:29:05 10° N
USA 267 4.0 19:21:15 10° ENE 19:27:26 48° N 19:33:39 10° WNW
Cosmos 1408 Rocket 3.8 19:24:23 10° SSE 19:28:33 45° E 19:32:47 10° NNE
ISS -3.4 19:26:30 10° SW 19:29:42 43° SSE 19:30:43 32° ESE
NOSS 3-3 (A) 4.2 19:25:18 10° S 19:30:09 36° ESE 19:35:43 10° NE
CZ-4B R/B 3.5 19:26:32 10° S 19:30:20 55° W 19:34:21 10° NNW
Kosmos-1783 4.3 19:30:35 10° W 19:32:19 22° NW 19:33:11 15° N
SL-08 R/B 4.2 19:28:05 10° N 19:32:55 56° WNW 19:37:43 10° SSW
Cosmos 2237 Rocket 2.1 19:29:26 10° SSW 19:34:57 62° ESE 19:40:31 10° NE
CSL-04 Rocket 3.6 19:32:08 10° SSE 19:37:30 89° WSW 19:42:51 10° NNW
Aureole 3 Rocket 4.0 19:31:14 10° SSE 19:37:37 46° E 19:42:18 10° NNE
Cosmos 2219 Rocket 4.1 19:34:53 10° WSW 19:39:56 32° NW 19:45:01 10° NNE
Cosmos 1356 Rocket 4.2 19:38:37 10° NNW 19:42:42 51° W 19:46:44 10° S
Lacrosse 4 Rocket 4.3 19:42:17 10° WNW 19:44:24 14° WSW 19:46:32 10° SW
IKONOS-2 4.4 19:42:06 10° NNE 19:46:14 61° ESE 19:50:19 10° S
Meteor 1-11 Rocket 3.6 19:41:03 10° S 19:46:39 74° E 19:52:11 10° NNE
MOS 1 Rocket 4.0 19:45:38 29° ESE 19:47:39 42° ENE 19:52:38 10° N
CARTOSAT-1 4.3 19:46:43 10° S 19:50:51 51° W 19:55:01 10° NNW
Cosmos 158 Rocket 3.7 19:47:03 10° S 19:51:53 67° ESE 19:56:43 10° NNE
ATLAS CENTAUR R/B 0.9 19:48:25 10° SSW 19:51:56 62° SE 19:54:53 15° NE
NOSS 3-4 (A) 4.2 19:46:47 10° NW 19:53:09 50° NE 19:57:11 26° E
NOSS 3-4 (C) 4.2 19:46:54 10° NW 19:53:15 49° NE 19:57:18 26° E
Cosmos 1805 Rocket 3.6 19:52:47 30° SSE 19:54:40 55° E 19:58:55 10° NNE
Cosmos 1428 Rocket 4.4 19:51:46 10° N 19:57:55 81° E 20:02:18 20° SSE
Cosmos 1733 3.6 19:55:37 10° SSW 19:59:00 55° WNW 20:02:23 10° N
USA 276 3.7 19:58:41 10° W 20:00:38 22° SW 20:00:38 22° SW
Cosmos 2369 Rocket 3.0 19:58:04 10° NNW 20:03:25 38° NE 20:05:12 31° E
SL-24 R/B 4.4 20:01:55 36° SE 20:03:42 60° E 20:08:27 10° N
Cosmos 1980 3.8 19:58:50 10° SSW 20:04:31 80° WNW 20:10:15 10° NNE
Cosmos 1862 Rocket 4.4 20:02:39 10° N 20:06:32 33° ENE 20:06:32 33° ENE
Meteor 1-21 4.3 20:02:28 10° N 20:08:11 63° ENE 20:10:23 37° SE
Sich 1 2.8 20:07:33 27° S 20:09:50 84° E 20:14:10 10° N
Cosmos 1943 Rocket 2.9 20:05:06 10° NW 20:10:25 49° WSW 20:14:05 19° S
Cosmos 1707 Rocket 4.1 20:06:53 10° N 20:11:04 40° ENE 20:11:04 40° ENE
DELTA 2 DEB (DPAF) 4.0 20:07:46 10° NNE 20:11:47 55° E 20:11:47 55° E
Cosmos 2298 Rocket 4.0 20:08:59 10° NNW 20:14:19 83° WSW 20:16:27 37° SSE
Terra 2.1 20:13:52 44° E 20:14:22 46° ENE 20:18:52 10° N
ACS3 Solar Sail 2.1 20:09:35 15° S 20:15:04 71° W 20:21:30 10° NNW
ERS-1 Rocket 3.1 20:14:04 46° ESE 20:15:07 56° ENE 20:20:02 10° N
Cosmos 2195 Rocket 4.4 20:09:16 10° N 20:15:24 86° W 20:19:12 25° S
Cosmos 2150 Rocket 4.0 20:10:50 10° NNW 20:16:01 80° WSW 20:17:56 39° SSE
USA 32 4.0 20:11:20 10° N 20:16:37 83° W 20:19:24 29° S
Cosmos 1570 Rocket 4.2 20:11:55 10° SSW 20:17:11 71° WNW 20:22:28 10° NNE
Cosmos 1975 3.2 20:18:58 45° NE 20:18:58 45° NE 20:21:57 10° NNE
Cosmos 1805 3.2 20:21:37 59° SW 20:22:08 71° W 20:25:48 10° N
Cosmos 1315 Rocket 3.9 20:18:57 10° NNW 20:22:42 41° W 20:24:27 26° SSW
Cosmos 2026 Rocket 3.9 20:16:29 10° N 20:22:46 89° WSW 20:25:51 32° S
Cosmos 1092 Rocket 4.0 20:16:53 10° N 20:23:15 89° E 20:26:29 32° S
Ariane Rocket 3.4 20:24:21 42° ENE 20:24:41 42° ENE 20:29:28 10° N
Meteor 2-12 Rocket 4.3 20:20:22 10° N 20:26:35 81° E 20:28:55 41° SSE
Cosmos 836 Rocket 4.5 20:22:23 10° SSW 20:27:41 84° WNW 20:33:01 10° NNE
IRS-1A Rocket 4.2 20:26:27 45° SSE 20:28:21 80° ENE 20:34:04 10° NNW
Okean 3 4.0 20:29:27 10° N 20:32:45 45° NE 20:32:45 45° NE
SL-16 R/B 2.2 20:35:16 57° ESE 20:35:22 58° ESE 20:40:56 10° NE
Okean O Rocket 3.1 20:35:02 19° SSW 20:37:35 33° W 20:41:36 10° NNW
Cosmos 1634 Rocket 3.9 20:36:32 34° S 20:39:27 82° E 20:45:49 10° N
SL-14 R/B 4.0 20:36:42 10° NNW 20:40:21 45° W 20:40:36 44° WSW
Cosmos 1656 Rocket 3.5 20:34:42 10° NNW 20:40:25 84° ENE 20:41:19 64° SE
USA 306 3.6 20:37:30 10° WNW 20:40:35 41° NNW 20:40:35 41° NNW
USA 59 Rocket 3.0 20:41:47 10° WSW 20:42:46 11° WSW 20:43:48 10° SW
ATLAS 2AS CENTAUR R/B 4.5 20:37:24 10° NW 20:43:07 26° N 20:48:41 10° ENE
IRS-1C Rocket 4.0 20:45:02 61° S 20:45:58 82° WSW 20:51:17 10° NNW
Cosmos 773 Rocket 3.9 20:45:39 39° SSW 20:47:42 87° WNW 20:53:02 10° NNE
Okean 1-7 4.1 20:45:49 10° N 20:48:39 34° NNE 20:48:39 34° NNE
Cosmos 2263 4.3 20:45:52 10° NNW 20:51:34 60° NE 20:51:55 58° ENE
Resurs 01 Rocket 4.4 20:50:15 10° WSW 20:52:42 14° W 20:55:09 10° NW
Cosmos 2228 Rocket 3.3 20:50:55 10° NNW 20:55:20 71° WNW 20:55:20 71° WNW
SPOT 3 Rocket 3.5 21:00:55 77° NE 21:00:55 77° NE 21:05:53 10° NNW
Okean-O 4.0 21:00:31 29° WSW 21:01:30 32° W 21:05:27 10° NNW
SPOT 5 4.0 21:01:23 32° SW 21:02:21 35° W 21:06:29 10° NNW
Cosmos 2142 Rocket 4.3 21:02:36 70° ESE 21:02:44 71° E 21:08:51 10° NNE
NOSS 3-3 (C) 4.1 21:00:54 10° SW 21:06:24 68° NW 21:12:59 10° NE
ISS -0.9 21:03:05 10° W 21:03:42 14° W 21:03:42 14° W
USA 267 3.4 21:08:22 50° E 21:09:59 67° NNE 21:16:28 10° WNW
Cosmos 724 4.3 21:15:31 69° NE 21:15:31 69° NE 21:20:37 10° NE
Cosmos 2180 Rocket 4.4 21:17:01 78° ESE 21:17:05 78° E 21:23:28 10° NNE
Cosmos 2237 Rocket 4.0 21:14:32 10° WSW 21:19:25 29° NW 21:24:20 10° NNE
NOSS 3-3 (A) 4.5 21:15:14 10° WSW 21:20:42 55° NW 21:27:14 10° NE
Cosmos 2279 Rocket 4.0 21:20:00 62° SW 21:21:02 76° W 21:27:17 10° N
Cosmos 1607 4.0 21:18:15 10° SW 21:24:44 77° NW 21:31:12 10° NE
Cosmos 2297 4.2 21:23:40 10° NW 21:28:59 50° WSW 21:28:59 50° WSW
ATLAS CENTAUR R/B 3.5 21:26:44 10° W 21:29:40 22° NNW 21:29:51 22° NNW
Spot 2 Rocket 4.2 21:31:06 47° W 21:31:06 47° W 21:35:39 10° NNW
NOSS 3-4 (A) 4.1 21:37:36 10° NW 21:44:17 56° SW 21:44:37 56° SW
NOSS 3-4 (C) 4.1 21:37:42 10° NW 21:44:24 57° SW 21:44:43 56° SW
Cosmos 2369 Rocket 3.0 21:42:06 10° NW 21:46:58 44° W 21:46:58 44° W
Terra 3.6 21:52:34 25° W 21:52:34 25° W 21:56:01 10° NW
ACS3 Solar Sail 4.3 21:57:12 10° WSW 22:00:16 14° W 22:03:20 10° NW
SL-16 R/B 3.8 22:17:00 21° W 22:19:49 31° NW 22:24:51 10° NNE
ATLAS 2AS CENTAUR R/B 3.6 22:29:24 10° NW 22:35:54 40° NNE 22:36:31 39° NE
Cosmos 1943 4.5 22:41:44 37° N 22:41:44 37° N 22:45:21 10° NNE
USA 267 4.3 22:55:43 35° W 22:55:43 35° W 22:59:32 10° WNW
Cosmos 1697 Rocket 4.2 22:48:41 10° NNW 22:52:28 31° NNE 22:52:28 31° NNE
Cosmos 2344 3.9 23:19:32 10° NW 23:27:15 78° W 23:27:15 78° W
Cosmos 1980 Rocket 3.7 23:48:54 10° NNW 23:52:14 32° N 23:52:14 32° N
